• în România
  • Lista ţărilor
  • Pe 7 zile
  • Temperatura apei
  • Hartă satelitară
  • Meteo pe hartă
  • Widget-uri
  • user-avatar
    Intrare

    Meteo pe oră la Neuquén

    Astăzi, 26 Aprilie, Miercuri

    Timp Temperatura Precipitaţii Vânt Presiune Umiditate
    00:00 +8°C° 0 mm 9 m/s 736 mmHg 52%
    01:00 +8°C° 0 mm 9 m/s 735 mmHg 52%
    02:00 +8°C° 0 mm 9 m/s 735 mmHg 53%
    03:00 +8°C° 0 mm 9 m/s 735 mmHg 54%
    04:00 +8°C° 0 mm 9 m/s 735 mmHg 55%
    05:00 +8°C° 0 mm 9 m/s 735 mmHg 56%
    06:00 +8°C° 0 mm 9 m/s 735 mmHg 56%
    07:00 +9°C° 0 mm 8 m/s 735 mmHg 56%
    08:00 +11°C° 0 mm 10 m/s 735 mmHg 50%
    09:00 +13°C° 0 mm 11 m/s 735 mmHg 44%
    10:00 +17°C° 0 mm 12 m/s 735 mmHg 38%
    11:00 +18°C° 0 mm 12 m/s 734 mmHg 35%
    12:00 +19°C° 0 mm 12 m/s 734 mmHg 32%
    13:00 +21°C° 0 mm 12 m/s 734 mmHg 29%
    14:00 +19°C° 0 mm 11 m/s 733 mmHg 30%
    15:00 +19°C° 0 mm 10 m/s 733 mmHg 31%
    16:00 +18°C° 0 mm 9 m/s 733 mmHg 32%
    17:00 +17°C° 0 mm 9 m/s 733 mmHg 37%
    18:00 +15°C° 0 mm 9 m/s 733 mmHg 42%
    19:00 +13°C° 0 mm 8 m/s 734 mmHg 47%
    20:00 +12°C° 0 mm 8 m/s 734 mmHg 49%
    21:00 +12°C° 0 mm 8 m/s 734 mmHg 51%
    22:00 +11°C° 0 mm 7 m/s 734 mmHg 53%
    23:00 +11°C° 0 mm 7 m/s 734 mmHg 54%

    Mâine, 27 Aprilie, Joi

    Timp Temperatura Precipitaţii Vânt Presiune Umiditate
    00:00 +10°C° 0 mm 6 m/s 734 mmHg 55%
    01:00 +10°C° 0 mm 6 m/s 734 mmHg 56%
    02:00 +10°C° 0 mm 6 m/s 734 mmHg 57%
    03:00 +10°C° 0 mm 5 m/s 733 mmHg 57%
    04:00 +10°C° 0 mm 5 m/s 733 mmHg 58%
    05:00 +10°C° 0 mm 5 m/s 733 mmHg 57%
    06:00 +10°C° 0 mm 5 m/s 733 mmHg 56%
    07:00 +10°C° 0 mm 5 m/s 732 mmHg 55%
    08:00 +14°C° 0 mm 6 m/s 732 mmHg 47%
    09:00 +16°C° 0 mm 8 m/s 732 mmHg 40%
    10:00 +19°C° 0 mm 9 m/s 732 mmHg 32%
    11:00 +21°C° 0 mm 10 m/s 731 mmHg 31%
    12:00 +22°C° 0 mm 12 m/s 731 mmHg 29%
    13:00 +23°C° 0 mm 13 m/s 730 mmHg 28%
    14:00 +23°C° 0 mm 12 m/s 730 mmHg 31%
    15:00 +22°C° 0 mm 11 m/s 730 mmHg 34%
    16:00 +21°C° 0 mm 10 m/s 730 mmHg 37%
    17:00 +19°C° 0 mm 9 m/s 731 mmHg 40%
    18:00 +18°C° 0 mm 8 m/s 732 mmHg 44%
    19:00 +17°C° 0 mm 7 m/s 732 mmHg 48%
    20:00 +16°C° 0 mm 7 m/s 733 mmHg 51%
    21:00 +16°C° 0 mm 6 m/s 733 mmHg 54%
    22:00 +15°C° 0 mm 5 m/s 734 mmHg 56%
    23:00 +15°C° 0 mm 5 m/s 734 mmHg 58%

    Poimâine, 28 Aprilie, Vineri

    Timp Temperatura Precipitaţii Vânt Presiune Umiditate
    00:00 +14°C° 0 mm 5 m/s 734 mmHg 60%
    01:00 +14°C° 0 mm 5 m/s 735 mmHg 61%
    02:00 +13°C° 0 mm 5 m/s 735 mmHg 63%
    03:00 +13°C° 0 mm 5 m/s 735 mmHg 65%
    04:00 +13°C° 0 mm 4 m/s 735 mmHg 67%
    05:00 +13°C° 0 mm 4 m/s 735 mmHg 67%
    06:00 +13°C° 0 mm 4 m/s 736 mmHg 66%
    07:00 +13°C° 0 mm 4 m/s 736 mmHg 66%
    08:00 +15°C° 0 mm 5 m/s 736 mmHg 59%
    09:00 +17°C° 0 mm 6 m/s 737 mmHg 52%
    10:00 +20°C° 0 mm 6 m/s 737 mmHg 45%
    11:00 +21°C° 0 mm 6 m/s 737 mmHg 41%
    12:00 +22°C° 0 mm 6 m/s 736 mmHg 38%
    13:00 +23°C° 0 mm 6 m/s 736 mmHg 35%
    14:00 +23°C° 0 mm 5 m/s 736 mmHg 36%
    15:00 +22°C° 0 mm 4 m/s 736 mmHg 37%
    16:00 +22°C° 0 mm 3 m/s 735 mmHg 38%
    17:00 +21°C° 0 mm 3 m/s 735 mmHg 42%
    18:00 +19°C° 0 mm 2 m/s 736 mmHg 46%
    19:00 +18°C° 0 mm 2 m/s 736 mmHg 50%
    20:00 +17°C° 0 mm 2 m/s 736 mmHg 52%
    21:00 +17°C° 0 mm 3 m/s 736 mmHg 53%
    22:00 +17°C° 0 mm 3 m/s 736 mmHg 54%
    23:00 +16°C° 0 mm 3 m/s 736 mmHg 57%

    29 Aprilie, Sâmbătă

    Timp Temperatura Precipitaţii Vânt Presiune Umiditate
    00:00 +16°C° 0 mm 3 m/s 736 mmHg 59%
    01:00 +14°C° 0 mm 3 m/s 736 mmHg 61%
    02:00 +14°C° 0 mm 3 m/s 736 mmHg 62%
    03:00 +13°C° 0 mm 3 m/s 735 mmHg 63%
    04:00 +13°C° 0 mm 3 m/s 735 mmHg 64%
    05:00 +13°C° 0 mm 3 m/s 735 mmHg 64%
    06:00 +13°C° 0 mm 3 m/s 735 mmHg 65%
    07:00 +13°C° 0 mm 3 m/s 735 mmHg 65%
    08:00 +17°C° 0 mm 3 m/s 736 mmHg 56%
    09:00 +19°C° 0 mm 4 m/s 736 mmHg 48%
    10:00 +21°C° 0 mm 4 m/s 736 mmHg 40%
    11:00 +22°C° 0 mm 3 m/s 736 mmHg 37%
    12:00 +24°C° 0 mm 3 m/s 735 mmHg 34%
    13:00 +25°C° 0 mm 3 m/s 735 mmHg 31%
    14:00 +25°C° 0 mm 3 m/s 734 mmHg 32%
    15:00 +24°C° 0 mm 2 m/s 734 mmHg 34%
    16:00 +24°C° 0 mm 2 m/s 734 mmHg 35%
    17:00 +21°C° 0 mm 2 m/s 734 mmHg 38%
    18:00 +20°C° 0 mm 2 m/s 734 mmHg 41%
    19:00 +18°C° 0 mm 3 m/s 735 mmHg 44%
    20:00 +18°C° 0 mm 3 m/s 735 mmHg 47%
    21:00 +17°C° 0 mm 3 m/s 734 mmHg 49%
    22:00 +17°C° 0 mm 2 m/s 734 mmHg 51%
    23:00 +16°C° 0 mm 2 m/s 734 mmHg 52%

    30 Aprilie, Duminică

    Timp Temperatura Precipitaţii Vânt Presiune Umiditate
    00:00 +16°C° 0 mm 2 m/s 734 mmHg 54%
    01:00 +15°C° 0 mm 2 m/s 734 mmHg 55%
    02:00 +15°C° 0 mm 2 m/s 733 mmHg 56%
    03:00 +14°C° 0 mm 1 m/s 733 mmHg 57%
    04:00 +14°C° 0 mm 1 m/s 733 mmHg 58%
    05:00 +14°C° 0 mm 1 m/s 733 mmHg 57%
    06:00 +14°C° 0 mm 1 m/s 733 mmHg 56%
    07:00 +14°C° 0 mm 1 m/s 733 mmHg 55%
    08:00 +18°C° 0 mm 1 m/s 733 mmHg 48%
    09:00 +19°C° 0 mm 2 m/s 733 mmHg 41%
    10:00 +23°C° 0 mm 2 m/s 734 mmHg 34%
    11:00 +24°C° 0 mm 2 m/s 733 mmHg 31%
    12:00 +25°C° 0 mm 3 m/s 732 mmHg 29%
    13:00 +26°C° 0 mm 3 m/s 732 mmHg 26%
    14:00 +26°C° 0 mm 3 m/s 732 mmHg 27%
    15:00 +25°C° 0 mm 3 m/s 731 mmHg 29%
    16:00 +24°C° 0 mm 2 m/s 731 mmHg 30%
    17:00 +23°C° 0 mm 2 m/s 731 mmHg 33%
    18:00 +20°C° 0 mm 2 m/s 732 mmHg 36%
    19:00 +19°C° 0 mm 2 m/s 732 mmHg 39%
    20:00 +18°C° 0 mm 2 m/s 732 mmHg 41%
    21:00 +18°C° 0 mm 3 m/s 732 mmHg 43%
    22:00 +17°C° 0 mm 3 m/s 732 mmHg 45%
    23:00 +17°C° 0 mm 2 m/s 731 mmHg 45%

    1 Mai, Luni

    Timp Temperatura Precipitaţii Vânt Presiune Umiditate
    00:00 +17°C° 0 mm 2 m/s 731 mmHg 45%
    01:00 +16°C° 0 mm 2 m/s 731 mmHg 46%
    02:00 +16°C° 0 mm 2 m/s 731 mmHg 45%
    03:00 +16°C° 0 mm 2 m/s 731 mmHg 44%
    04:00 +15°C° 0 mm 1 m/s 731 mmHg 43%
    05:00 +15°C° 0 mm 1 m/s 731 mmHg 41%
    06:00 +16°C° 0 mm 1 m/s 731 mmHg 39%
    07:00 +16°C° 0 mm 1 m/s 731 mmHg 37%
    08:00 +18°C° 0 mm 2 m/s 731 mmHg 31%
    09:00 +21°C° 0 mm 2 m/s 732 mmHg 26%
    10:00 +25°C° 0 mm 2 m/s 732 mmHg 20%
    11:00 +25°C° 0 mm 2 m/s 732 mmHg 18%
    12:00 +26°C° 0 mm 2 m/s 731 mmHg 16%
    13:00 +27°C° 0 mm 3 m/s 731 mmHg 14%
    14:00 +26°C° 0 mm 2 m/s 731 mmHg 16%
    15:00 +25°C° 0 mm 2 m/s 731 mmHg 18%
    16:00 +24°C° 0 mm 1 m/s 731 mmHg 20%
    17:00 +23°C° 0 mm 1 m/s 731 mmHg 22%
    18:00 +22°C° 0 mm 1 m/s 732 mmHg 24%
    19:00 +20°C° 0 mm 1 m/s 732 mmHg 25%
    20:00 +20°C° 0 mm 1 m/s 732 mmHg 26%
    21:00 +20°C° 0 mm 1 m/s 732 mmHg 26%
    22:00 +19°C° 0 mm 2 m/s 732 mmHg 27%
    23:00 +18°C° 0 mm 2 m/s 732 mmHg 28%
    Arată mai mult